DW7955 Weather Reports


time (UTC)temp
F
wind
direction
speed
knots
gust
knots
rain 1hr
in
rain 24hr
in
rain mn
in
humidity
%
barometer
mb
20260502163016 60 330 4.3 7.8 0.00 0.00 0.00 24 1019.6
20260502161511 59 215 3.5 7.0 0.00 0.00 0.00 31 1019.6
20260502151605 55 253 2.6 7.8 0.00 0.00 0.00 44 1020.1
20260502123025 39 297 1.7 5.2 0.00 0.00 0.00 73 1020.6
20260502121517 39 325 0.9 3.5 0.00 0.00 0.00 74 1020.6
20260502114516 38 294 0.0 0.0 0.00 0.00 0.00 75 1020.5
20260502113015 38 294 0.0 0.0 0.00 0.00 0.00 75 1020.3
20260502111518 39 294 0.0 3.5 0.00 0.00 0.00 74 1020.4
20260502110014 39 294 0.9 3.5 0.00 0.00 0.00 74 1020.3
20260502104511 39 302 1.7 4.3 0.00 0.00 0.00 74 1020.3
20260502103009 39 333 0.9 4.3 0.00 0.00 0.00 76 1020.3
20260502101507 39 296 0.9 4.3 0.00 0.00 0.00 75 1020.1
20260502090113 41 302 0.0 2.6 0.00 0.00 0.00 75 1019.8
20260502070042 42 305 0.0 1.7 0.00 0.00 0.00 75 1019.7
20260502064540 43 305 0.0 1.7 0.00 0.00 0.00 73 1019.7
20260502063038 44 305 0.9 5.2 0.00 0.00 0.00 73 1019.7
20260502061534 44 265 0.0 0.9 0.00 0.00 0.00 72 1019.7
20260502060032 44 265 0.0 4.3 0.00 0.01 0.00 71 1019.7
20260502054532 45 297 0.0 3.5 0.00 0.01 0.00 70 1019.6
20260502053031 44 266 0.0 0.0 0.00 0.01 0.00 70 1019.4
20260502051535 45 266 0.0 0.9 0.00 0.01 0.00 69 1019.3
20260502050037 45 182 0.0 0.9 0.00 0.04 0.00 71 1019.3
20260502044531 45 182 0.0 0.0 0.00 0.04 0.00 70 1019.3
20260502043030 45 182 0.0 0.0 0.00 0.04 0.00 70 1019.2
20260502041542 46 182 0.0 0.0 0.00 0.04 0.00 67 1019.3
20260502040029 47 182 0.0 0.0 0.00 0.05 0.00 66 1019.3
20260502034529 48 182 0.0 1.7 0.00 0.05 0.00 64 1019.2
20260502033030 48 142 0.9 2.6 0.00 0.05 0.00 63 1019.1
20260502031528 49 142 0.0 0.0 0.00 0.05 0.00 60 1018.9
20260502030027 49 142 0.0 0.0 0.00 0.06 0.00 56 1018.7
20260502024527 50 142 0.0 0.0 0.00 0.06 0.00 56 1018.5
20260502023027 52 142 0.0 0.9 0.00 0.06 0.00 51 1018.3
20260502021527 53 142 0.0 2.6 0.00 0.06 0.00 47 1018.1
20260502020025 54 142 0.0 0.9 0.00 0.10 0.00 44 1018.0
20260502014528 54 142 0.9 2.6 0.00 0.10 0.00 41 1017.9
20260502013025 55 142 0.9 3.5 0.00 0.10 0.00 40 1017.8
20260502011525 56 164 2.6 4.3 0.00 0.10 0.00 38 1017.6
20260502010025 56 65 0.9 4.3 0.00 0.12 0.00 37 1017.7
20260502004524 56 92 3.5 7.8 0.00 0.12 0.00 37 1017.6
20260502003022 57 45 0.0 7.0 0.00 0.12 0.00 36 1017.6
20260502001523 58 77 1.7 4.3 0.00 0.12 0.00 37 1017.5
20260502000020 57 59 2.6 7.0 0.00 0.16 0.00 37 1017.5
20260501234520 57 74 0.9 7.8 0.00 0.16 0.00 36 1017.5
20260501233020 58 74 1.7 7.0 0.00 0.16 0.00 36 1017.5
20260501231518 57 217 4.3 7.0 0.00 0.16 0.00 38 1017.6
20260501230015 57 240 4.3 6.1 0.00 0.20 0.00 38 1017.8
20260501224514 56 194 0.0 7.0 0.00 0.20 0.00 39 1017.9
20260501223013 55 117 0.0 5.2 0.00 0.20 0.00 41 1018.0
20260501221511 55 81 0.0 6.1 0.00 0.20 0.00 39 1018.2
20260501220010 57 59 0.0 3.5 0.00 0.22 0.00 38 1018.3
20260501214509 57 9 0.9 6.1 0.00 0.22 0.00 38 1018.4
20260501213008 56 157 3.5 7.8 0.00 0.22 0.00 38 1018.5
20260501211508 57 277 2.6 7.0 0.00 0.22 0.00 39 1018.7
20260501210003 56 232 2.6 5.2 0.00 0.22 0.00 39 1018.9
20260501204500 56 208 2.6 5.2 0.00 0.22 0.00 39 1019.1
20260501203059 55 174 3.5 6.1 0.00 0.22 0.00 41 1019.2
20260501201607 55 114 1.7 6.1 0.00 0.22 0.00 39 1019.5
20260501200054 55 196 0.0 4.3 0.00 0.22 0.00 37 1019.7
20260501194555 55 298 2.6 6.1 0.00 0.22 0.00 39 1019.7
20260501193052 54 148 0.9 7.8 0.00 0.22 0.00 41 1019.8
20260501191555 53 144 0.9 5.2 0.00 0.22 0.00 41 1020.1
20260501190047 53 194 3.5 6.1 0.00 0.22 0.00 41 1020.2
20260501184544 52 1 0.9 4.3 0.00 0.22 0.00 49 1020.5
20260501183040 51 155 0.9 7.0 0.00 0.22 0.00 49 1020.6
20260501181539 51 182 0.0 3.5 0.00 0.22 0.00 52 1020.8
20260501180047 50 171 1.7 7.0 0.00 0.22 0.00 53 1021.0
20260501174555 51 139 1.7 5.2 0.00 0.22 0.00 53 1021.1